Showing default

YAOGAN-30 N, 44449

Orbit data source: Space-Track

YAOGAN-30 N, 44449 is a payload satellite owned by PLA SSF (CN) in LEO that was launched on Fri, 26 Jul 2019 UTC via a CHANG ZHENG 2C launch vehicle from the Xichang Space Center, China (XSC). Payload-class satellites include a variety of spacecraft equipped with specific instruments for various scientific and technological missions. These include communications satellites like Starlink; space stations such as the ISS; scientific satellites like the Hubble; Earth observation satellites from companies like Planet Labs, Umbra, and HawkEye 360; GPS; miniature CubeSats for education and research; and military/defense satellites.

Loading next visibility...
Identifier
44449, 2019-045A
Orbit
LEO
Country
Flag of CNCN / PRC
Related business
Manufacturer
SECM
Mission
Operational Defense Sigint
Bus & Motor
Unknown
Mass
~500 kg wet, ~500 kg dry
Launch date (UTC)
2019-07-26 (7 years ago)
Launch vehicle
CHANG ZHENG 2C
Launch site
Xichang Space Center, China (XSC)
Object type
Payload
Rocket body
Debris
Shape & HBR
Box + 2 Pan, 0.5 m
Radar Cross Section
0.446 m², Large (>1 m²)

Expand to show TLE details & history
Last TLE update: 23 hours ago

TLE from 23 hours ago
0 YAOGAN-30 N
1 44449U 19045A   26172.49240306  .00001965  00000-0  14632-3 0  9990
2 44449  34.9946 303.8549 0004513 309.7066  50.3245 15.02713722377262
Epoch: 2026-06-21T11:49Z
TLE epoch observation values (Epoch: 2026-06-21T11:49:03.624Z)
Latitude
0.00004°
Longitude
-143.10204°
Altitude
555.451 km
Speed
7.587 km/s
True Right ascension
20h 15m 25s
True Declination
0° 00' 00"
Sunlit
Object was in full shadow at epoch
Visualization orbit readout
Latitude
Unknown
Longitude
Unknown
Altitude
Unknown
Speed
Unknown
Apparent Right ascension
Unknown
Apparent Declination
Unknown
Sunlit
N/A
Visualization observer readout
Local Sidereal Time
21:23:33
Azimuth
Unknown
Elevation
Unknown
Doppler factor
Unknown
Orbital elements
Apogee altitude
564.887 km
Perigee altitude
558.623 km
Semi-major axis
6,939.892 km
Eccentricity
0.00045
Inclination
34.9946°
RAAN
303.8549°
Arg. of periapsis
309.7066°
True anomaly
50.36432°
Mean anomaly
50.3245°
Eccentric anomaly
50.34441°
Mean motion
3.75417 °/min
Orbital period
95.89 mins
BSTAR
0.00014632
Loading maneuver chart data...
Computing Atmospheric mass density...
Loading historical data...
Loading historical data...
Loading historical data...
Loading historical data...
Loading historical data...
Loading historical data...
Loading historical data...
Other satellites on launch #45 in the year 2019 (2019-07-26 UTC)

Documentation

Showing up to 5 results
|